PDT,Max TemperatureF,Mean TemperatureF,Min TemperatureF,Max Dew PointF,MeanDew PointF,Min DewpointF,Max Humidity, Mean Humidity, Min Humidity, Max Sea Level PressureIn, Mean Sea Level PressureIn, Min Sea Level PressureIn, Max VisibilityMiles, Mean VisibilityMiles, Min VisibilityMiles, Max Wind SpeedMPH, Mean Wind SpeedMPH, Max Gust SpeedMPH,PrecipitationIn, CloudCover, Events, WindDirDegrees
2012-10-1,108,90,72,48,40,31,38,21,7,29.87,29.80,29.73,10,10,10,8,5,,0.00,0,,262
2012-10-2,108,90,71,43,36,26,34,18,6,29.81,29.74,29.68,10,10,10,13,5,,0.00,1,,222
2012-10-3,107,89,71,52,42,31,42,23,7,29.88,29.81,29.75,10,10,10,21,8,29,0.00,0,,250
2012-10-4,102,88,75,46,38,31,30,18,9,29.96,29.89,29.84,10,10,10,20,11,22,0.00,0,,259
2012-10-5,96,80,68,52,41,35,33,25,13,29.94,29.86,29.80,10,10,10,10,4,,0.00,0,,269
2012-10-6,98,81,66,51,43,36,45,29,12,29.86,29.79,29.72,10,10,9,13,5,17,0.00,0,,264
2012-10-7,96,83,71,56,48,40,50,32,15,29.83,29.78,29.73,10,10,10,8,5,,0.00,0,,257
2012-10-8,96,82,69,56,50,44,54,34,17,29.87,29.81,29.75,10,10,10,9,5,,0.00,0,,233
2012-10-9,93,78,64,55,44,37,45,30,15,29.88,29.82,29.75,10,10,10,10,4,21,0.00,0,,233
2012-10-10,89,78,68,53,46,38,51,36,18,29.88,29.81,29.74,10,10,10,17,9,25,0.00,0,,283
2012-10-11,80,72,64,51,45,43,52,41,26,29.88,29.82,29.77,10,10,8,23,15,29,0.00,3,,278
2012-10-12,81,70,60,50,47,42,62,47,26,30.07,30.00,29.90,10,10,10,20,10,23,0.00,0,,266
2012-10-13,84,68,55,52,46,43,69,47,24,30.14,30.06,29.99,10,10,10,8,5,,0.00,0,,263
2012-10-14,93,74,57,51,46,41,62,39,20,30.05,29.97,29.89,10,10,10,7,4,17,0.00,0,,277
2012-10-15,96,79,62,51,45,40,56,34,15,29.91,29.85,29.78,10,10,10,7,5,,0.00,0,,271
2012-10-16,97,79,62,48,41,32,46,29,11,29.83,29.75,29.68,10,10,10,7,4,,0.00,0,,239
2012-10-17,96,78,62,60,49,41,65,39,16,29.86,29.78,29.71,10,10,9,6,2,,0.00,0,,145
2012-10-18,93,80,68,69,64,59,81,60,32,29.99,29.91,29.86,10,10,10,6,2,,0.00,0,,8
2012-10-19,97,82,66,62,53,36,73,44,12,29.91,29.82,29.74,10,10,10,10,2,,0.00,0,,278
2012-10-20,96,80,66,56,53,48,54,42,23,29.77,29.71,29.64,10,10,9,16,7,,0.00,0,,237
2012-10-21,86,76,66,54,52,48,59,46,28,29.80,29.75,29.70,10,10,10,15,11,22,0.00,0,,270
2012-10-22,86,72,60,52,46,39,67,42,21,29.88,29.82,29.78,10,10,10,14,6,,0.00,0,,268
2012-10-23,84,73,62,49,42,33,55,36,20,29.90,29.83,29.76,10,10,9,17,10,22,0.00,0,,283
2012-10-24,82,70,57,43,36,29,50,33,15,29.95,29.90,29.83,10,10,10,14,8,17,0.00,0,,295
2012-10-25,84,68,53,41,34,23,59,35,12,30.04,29.97,29.91,10,10,10,8,5,,0.00,0,,290
2012-10-26,81,67,53,41,32,18,57,33,10,30.11,30.02,29.95,10,10,10,16,8,,0.00,0,,317
2012-10-27,86,67,50,37,25,12,46,25,7,29.97,29.91,29.84,10,10,10,8,5,,0.00,0,,266
2012-10-28,90,70,51,37,28,18,39,24,7,29.96,29.91,29.87,10,10,9,7,3,,0.00,0,,259
2012-10-29,91,72,54,39,32,23,43,27,9,30.04,29.98,29.94,10,10,6,7,3,,0.00,0,,264
2012-10-30,91,73,55,42,34,24,48,29,9,30.00,29.94,29.88,10,10,7,6,2,,0.00,0,,244
2012-10-31,90,72,55,44,37,30,50,33,12,29.96,29.90,29.85,10,10,10,7,2,,0.00,0,,254